Location: Gleizolles
(44.4833°N, 6.7667°E)
Time: 10:17:22
(UTC+00:00)

Transit 2A - Pass Details

Date: 02 July 2024
Orbit: 591 x 960 km, 66.7° (Epoch: 17 July)

Event Time Altitude Azimuth Distance (km) Brightness Sun altitude
Rises 21:34:55 0° 323° (NW) 3,581 11.2 -17.0°
Reaches altitude 10° 21:37:30 10° 318° (NW) 2,663 10.0 -17.2°
Maximum altitude 21:43:28 47° 247° (WSW) 1,256 7.1 -17.7°
Enters shadow 21:47:05 23° 186° (S) 1,902 7.5 -18.0°
